Regional Weather Roundup
Issued by NWS

Home | Current Version | Previous Version | Text Only | Print | Product List | Glossary Off
Versions: 1 2 3 4 5 6 7 8 9 10 11 12 13 14 15 16 17 18 19 20 21 22 23 24 25 26 27 28 29 30 31 32 33 34 35 36 37 38 39 40 41 42 43 44 45 46 47 48 49 50

000
ASUS43 KMKX 271921
RWRWI

WISCONSIN REGIONAL WEATHER ROUNDUP
NATIONAL WEATHER SERVICE MILWAUKEE/SULLIVAN WI
200 PM CDT MON JUL 27 2015

NOTE: "FAIR" INDICATES FEW OR NO CLOUDS BELOW 12,000 FEET WITH NO
SIGNIFICANT WEATHER AND/OR OBSTRUCTIONS TO VISIBILITY.

WIZ001-002-006>008-014>016-023>028-272000-
NORTHWEST WISCONSIN

CITY           SKY/WX    TMP DP  RH WIND       PRES   REMARKS
SUPERIOR ARPT  SUNNY     83  71  65 E9        29.95F HX  88
ASHLAND        SUNNY     88  58  36 S7        29.98F HX  87
HAYWARD        SUNNY     85  53  33 VRB7G16   30.01F HX  83
SIREN          SUNNY     85  64  49 SE10G17   29.97F HX  86
CUMBERLAND     SUNNY     81  63  54 SE8       30.01S HX  82
RICE LAKE      PTSUNNY   82  67  59 SE10      30.02F HX  84
CHETEK         PTSUNNY   82  69  64 SE9       30.01F HX  85
LADYSMITH      SUNNY     85  59  40 S9        30.04S HX  84
EAU CLAIRE     PTSUNNY   84  66  54 S10       30.00S HX  86
MENOMONIE      MOSUNNY   83  68  59 SE15      30.00F HX  86
NEW RICHMOND   MOSUNNY   82  67  60 SE13      29.98S HX  85
OSCEOLA        MOSUNNY   84  68  59 SE13G20   29.99S HX  87
$$

WIZ003>005-009-010-017-018-272000-
NORTH CENTRAL WISCONSIN

CITY           SKY/WX    TMP DP  RH WIND       PRES   REMARKS
MANITOWISH WTR SUNNY     83  57  41 SE7       30.05F HX  83
ARBOR VITAE    SUNNY     83  57  40 SE8       30.06S HX  83
WOODRUFF       SUNNY     83  57  40 SE8       30.06S HX  83
RHINELANDER    SUNNY     87  52  29 SW10      30.07F HX  85
EAGLE RIVER    SUNNY     86  48  26 S6        30.06S HX  83
LAND O LAKES   SUNNY     88  51  27 SW6       30.06S HX  85
PHILLIPS       SUNNY     85  53  32 S8        30.04S HX  83
TOMAHAWK       SUNNY     85  53  33 S5        30.06S HX  83
MEDFORD        MOSUNNY   80  64  57 SE7       30.05F HX  81
MERRILL        NOT AVBL
$$

WIZ029-030-035-036-043>047-272000-
CENTRAL WISCONSIN

CITY           SKY/WX    TMP DP  RH WIND       PRES   REMARKS
WAUSAU         SUNNY     86  60  41 S9        30.04S HX  86
MOSINEE        SUNNY     82  63  51 S6        30.06S HX  83
MARSHFIELD     PTSUNNY   82  60  47 SE9       30.04F HX  82
STEVENS POINT  MOSUNNY   82  62  50 E9        30.05F HX  83
WAUPACA        MOSUNNY   87  61  40 SE6       30.04F HX  87
WAUTOMA        PTSUNNY   87  60  40 SE9       30.04S HX  86
WISC RAPIDS    PTSUNNY   85  60  42 VRB7      30.04F HX  85
CAMP DOUGLAS   PTSUNNY   86  70  58 SE5       30.02F HX  90
$$

WIZ011>013-019>022-031-037>040-048>050-272000-
NORTHEAST WISCONSIN

CITY           SKY/WX    TMP DP  RH WIND       PRES   REMARKS
ANTIGO         SUNNY     82  61  48 S7        30.08S HX  83
SHAWANO        SUNNY     88  63  43 SE9       30.05S HX  88
OCONTO         SUNNY     87  63  45 S8        30.03S HX  87
STURGEON BAY   SUNNY    N/A N/A N/A MISG      30.05F
GREEN BAY      SUNNY     87  62  43 S8        30.03F HX  87
MANITOWOC      SUNNY     82  62  50 MISG      30.05F HX  83
APPLETON       MOSUNNY   84  59  42 SE7       30.05S HX  84
CLINTONVILLE   SUNNY     86  59  39 S7        30.05R HX  85
OSHKOSH        MOSUNNY   86  64  47 SE8       30.04R HX  87
$$

WIZ032>034-041-042-053>061-272000-
SOUTHWEST WISCONSIN

CITY           SKY/WX    TMP DP  RH WIND       PRES   REMARKS
LA CROSSE      PTSUNNY   85  66  53 SE9       29.99F HX  87
SPARTA         PTSUNNY   85  61  45 SE8       30.02F HX  85
VIROQUA        PTSUNNY   83  68  60 S3        30.04S HX  86
BOSCOBEL       MOSUNNY   88  69  53 S7        30.00F HX  92
PRAIRIE DU CHI MOSUNNY   85  66  53 SE5       30.00S HX  87
PLATTEVILLE    MOSUNNY   84  69  60 SE7       30.02S HX  87
$$

WIZ056-057-062-063-064-067-068-272000-
SOUTH CENTRAL WISCONSIN

CITY           SKY/WX    TMP DP  RH WIND       PRES   REMARKS
REEDSBURG      SUNNY     86  66  51 S6        30.02F HX  88
BARABOO/DELLS  SUNNY     86  58  37 S5        30.03F HX  85
LONE ROCK      MOSUNNY   85  66  53 SE5       30.01F HX  87
MINERAL POINT  MOSUNNY   88  64  45 SE10G16   30.03F HX  89
MADISON        PTSUNNY   85  67  54 SE9       30.02S HX  87
MIDDLETON      MOSUNNY   86  66  50 E10       30.02F HX  88
WATERTOWN      MOSUNNY   84  65  52 SE8       30.03S HX  86
MONROE         MOSUNNY   86  66  51 SE8       30.02S HX  88
JANESVILLE     MOSUNNY   88  64  45 E8        30.01S HX  89
$$

WIZ051-052-058>065-066-070>072-272000-
SOUTHEAST WISCONSIN

CITY           SKY/WX    TMP DP  RH WIND       PRES   REMARKS
MILWAUKEE      MOSUNNY   83  61  47 E8        30.04R HX  83
WAUKESHA       SUNNY     82  57  42 SE14      30.05S HX  82
MILWAUKEE/TIMM SUNNY     84  57  39 SE8       30.05S HX  83
RACINE         PTSUNNY   83  62  49 SE9       30.06R HX  84
BURLINGTON     MOSUNNY   83  59  44 E9        30.03S HX  82
KENOSHA        MOSUNNY   83  62  49 E12       30.04S HX  84
FOND DU LAC    MOSUNNY   86  63  45 SE9       30.04R HX  87
SHEBOYGAN      MOSUNNY   83  63  50 SE9       30.05S HX  84
WEST BEND      MOSUNNY   82  59  44 CALM      30.05S HX  82
JUNEAU           N/A     83  62  49 SE8       30.05S HX  84
$$

LSZ147-162-272000-
LAKE SUPERIOR

STATION/POSITION TIME  TEMP    WIND        PRES    WAVE
                       AIR SEA DIR/SP/G            HT/PER
                 (UTC) (F)     (DEG/KT/KT) (MB)    (FT/S)
W MID LAKE BUOY  1850   67 63  180/  2/  2 1015.2F   0
DEVILS ISLAND    1900   76      80/  9/ 10 1015.1F
PORT WING        1800   78      20/  8/  9 1014.9F
SAXON HARBOR     1840   79                 1015.2F
$$

LMZ867-665-643>646-272000-
LAKE MICHIGAN

STATION/POSITION TIME  TEMP    WIND        PRES    WAVE
                       AIR SEA DIR/SP/G            HT/PER
                 (UTC) (F)     (DEG/KT/KT) (MB)    (FT/S)
CHAMBERS ISLAND  1800   85     190/  5/  8 1016.6F
N MID LAKE BUOY  1850   72 71  200/  6/  8 1016.5F   0
NORTHPORT PIER   1800   76     140/  5/  6 1016.9S
SISTER BAY       1844   86        CALM       N/A
ALGOMA LAKESHORE 1812             CALM       N/A
KEWAUNEE LAKESHO 1800   71     150/  3/  4 1017.3F
SHEBOYGAN LAKESH 1900   72      80/  3/  3 1017.6F
PORT WASHINGTON  1800   75      50/  3/  5 1017.9S
ATWATER BUOY     1900   73      30/  2/  4 1018.9R
MILWAUKEE LAKESH 1900   72      50/  5/  6   N/A
KENOSHA   LAKESH 1900   76      70/  3/  3 1016.6S
$$

TC  - TEMPERATURE IN CELSIUS
VSB - VISIBILITY IN STATUTE MILES
WCI - WIND CHILL INDEX
HX  - HEAT INDEX



USA.gov is the U.S. government's official web portal to all federal, state and local government web resources and services.